Regional Weather Roundup
Issued by NWS Cleveland, OH

Home | Current Version | Previous Version | Text Only | Print | Product List | Glossary Off
Versions: 1 2 3 4 5 6 7 8 9 10 11 12 13 14 15 16 17 18 19 20 21 22 23 24 25 26 27 28 29 30 31 32 33 34 35 36 37 38 39 40 41 42 43 44 45 46 47 48 49 50

000
ASUS41 KCLE 011302
RWRCLE
OHIO REGIONAL WEATHER ROUNDUP
NATIONAL WEATHER SERVICE CLEVELAND, OH
800 AM EST SUN FEB 01 2015

NOTE: "FAIR" INDICATES FEW OR NO CLOUDS BELOW 12,000 FEET WITH NO
SIGNIFICANT WEATHER AND/OR OBSTRUCTIONS TO VISIBILITY.

OHZ001>008-015>018-024>027-034-035-043-044-011400-
   NORTHWEST OHIO

CITY           SKY/WX    TMP DP  RH WIND       PRES   REMARKS
DEFIANCE       LGT SNOW  32  30  92 E7        30.10S FOG     WCI  26
FINDLAY        CLOUDY    32  30  92 SE7       30.09F FOG     WCI  26
TOLEDO EXPRESS LGT SNOW  28  25  88 E12       30.11F FOG     WCI  18
TOLEDO EXEC    LGT SNOW  28  25  88 NE12      30.13F FOG     WCI  18
LIMA           LGT SNOW  34  32  92 SE6       30.07F VSB 1   WCI  29
$$

OHZ009>014-019>023-028>033-038-089-011400-
   NORTHEAST OHIO

CITY           SKY/WX    TMP DP  RH WIND       PRES   REMARKS
CLE-HOPKINS    LGT SNOW  29  27  92 S5        30.17S VSB 1   WCI  24
CLE-LAKEFRONT  LGT SNOW  30  28  92 NE5       30.15S FOG     WCI  25
CUY CO. ARPT   LGT SNOW  30  30 100 SE5       30.15S WCI  25
LORAIN-ELYRIA  LGT SNOW  28  27  96 S6        30.14S VSB 1   WCI  22
ASHTABULA      LGT SNOW  26  23  88 SE3       30.15F FOG
AKRON-CANTON   LGT SNOW  29  25  85 S8        30.13F VSB 3/4 WCI  21
WOOSTER        LGT SNOW  28  27  96 S5        30.13F VSB 1   WCI  23
MANSFIELD      CLOUDY    30  29  96 S8        30.11S FOG     WCI  22
YOUNGSTOWN     LGT SNOW  27  25  92 S5        30.14S VSB 1   WCI  22
$$

OHZ042-051>053-060>062-070>072-077>081-011400-
  SOUTHWEST OHIO

CITY           SKY/WX    TMP DP  RH WIND       PRES   REMARKS
CINC-COVINGTON CLOUDY    35  29  78 SE15      29.99F WCI  25
CINC-LUNKEN    CLOUDY    33  31  92 SE3       30.05F
HAMILTON       CLOUDY    35  31  85 E9        30.02F WCI  28
DAYTON         CLOUDY    33  31  92 E12       30.05F FOG     WCI  24
WRIGHT-PAT AFB LGT SNOW  32  32 100 E9        30.07F FOG     WCI  24
DAYTON GENERAL CLOUDY    34  30  85 E15       30.02F WCI  24
WILMINGTON     FRZ RAIN  32  30  92 E8        30.07F FOG     WCI  25
$$

OHZ036-037-039>041-045>050-054>059-063>069-073>076-082>088-011400-
  CENTRAL AND SOUTHEAST OHIO

CITY           SKY/WX    TMP DP  RH WIND       PRES   REMARKS
COLUMBUS       LGT SNOW  32  30  92 SE5       30.13F FOG     WCI  27
OSU AIRPORT    LGT SNOW  32  30  92 SE8       30.12F FOG     WCI  25
BOLTON FIELD   NOT AVBL
RICKENBACK AFB NOT AVBL
NEWARK         CLOUDY    32  29  88 SE3       30.14F FOG
MARION         LGT SNOW  31  29  92 S8        30.12F FOG     WCI  23
LANCASTER      LGT SNOW  33  31  92 SE6       30.15F FOG     WCI  28
ZANESVILLE     CLOUDY    29  27  92 S5        30.16S FOG     WCI  24
NEW PHILLY     CLOUDY    29  26  89 SE3       30.16F FOG
$$


USA.gov is the U.S. government's official web portal to all federal, state and local government web resources and services.